Time,TemperatureF,DewpointF,PressureIn,WindDirection,WindDirectionDegrees,WindSpeedMPH,WindSpeedGustMPH,Humidity,HourlyPrecipIn,Conditions,Clouds,dailyrainin,SoftwareType,DateUTC
2013-01-07 00:00:00,36.0,-99.9,-100.00,SW,224,12.0,-999.0,-999,-99.99,,,-99.99,,2013-01-07 08:00:00,
2013-01-07 00:53:00,36.0,-99.9,-100.00,SW,224,12.0,-999.0,-999,-99.99,,,-99.99,,2013-01-07 08:53:00,
2013-01-07 01:00:00,36.0,-99.9,-100.00,SW,225,12.0,-999.0,-999,-99.99,,,-99.99,,2013-01-07 09:00:00,
2013-01-07 02:00:00,35.0,-99.9,-100.00,SW,226,13.0,-999.0,-999,-99.99,,,-99.99,,2013-01-07 10:00:00,
2013-01-07 03:00:00,35.0,-99.9,-100.00,SW,230,13.0,-999.0,-999,-99.99,,,-99.99,,2013-01-07 11:00:00,
2013-01-07 03:53:00,35.0,-99.9,-100.00,SW,230,13.0,-999.0,-999,-99.99,,,-99.99,,2013-01-07 11:53:00,
2013-01-07 04:00:00,37.0,-99.9,-100.00,SW,221,16.0,-999.0,-999,-99.99,,,-99.99,,2013-01-07 12:00:00,
2013-01-07 05:00:00,38.0,-99.9,-100.00,SW,229,16.0,-999.0,-999,-99.99,,,-99.99,,2013-01-07 13:00:00,
2013-01-07 05:53:00,38.0,-99.9,-100.00,SW,229,16.0,-999.0,-999,-99.99,,,-99.99,,2013-01-07 13:53:00,
2013-01-07 06:00:00,38.0,-99.9,-100.00,SW,228,15.0,-999.0,-999,-99.99,,,-99.99,,2013-01-07 14:00:00,
2013-01-07 06:53:00,38.0,-99.9,-100.00,SW,228,15.0,-999.0,-999,-99.99,,,-99.99,,2013-01-07 14:53:00,
2013-01-07 07:00:00,38.0,-99.9,-100.00,SW,227,13.0,-999.0,-999,-99.99,,,-99.99,,2013-01-07 15:00:00,
2013-01-07 08:00:00,39.0,-99.9,-100.00,SW,220,12.0,-999.0,-999,-99.99,,,-99.99,,2013-01-07 16:00:00,
2013-01-07 09:00:00,41.0,-99.9,-100.00,SW,220,15.0,-999.0,-999,-99.99,,,-99.99,,2013-01-07 17:00:00,
2013-01-07 09:53:00,41.0,-99.9,-100.00,SW,220,15.0,-999.0,-999,-99.99,,,-99.99,,2013-01-07 17:53:00,
2013-01-07 10:00:00,42.0,-99.9,-100.00,SW,215,16.0,-999.0,-999,-99.99,,,-99.99,,2013-01-07 18:00:00,
2013-01-07 11:00:00,43.0,-99.9,-100.00,SW,225,17.0,-999.0,-999,-99.99,,,-99.99,,2013-01-07 19:00:00,
2013-01-07 12:00:00,44.0,-99.9,-100.00,SW,229,17.0,-999.0,-999,-99.99,,,-99.99,,2013-01-07 20:00:00,
2013-01-07 13:00:00,44.0,-99.9,-100.00,WSW,238,21.0,-999.0,-999,-99.99,,,-99.99,,2013-01-07 21:00:00,
2013-01-07 14:00:00,45.0,-99.9,-100.00,WSW,239,20.0,-999.0,-999,-99.99,,,-99.99,,2013-01-07 22:00:00,
2013-01-07 16:00:00,45.0,-99.9,-100.00,WSW,240,14.0,-999.0,-999,-99.99,,,-99.99,,2013-01-08 00:00:00,
2013-01-07 18:00:00,42.0,-99.9,-100.00,SW,233,12.0,-999.0,-999,-99.99,,,-99.99,,2013-01-08 02:00:00,
2013-01-07 18:53:00,42.0,-99.9,-100.00,SW,233,12.0,-999.0,-999,-99.99,,,-99.99,,2013-01-08 02:53:00,
2013-01-07 19:00:00,42.0,-99.9,-100.00,SW,229,12.0,-999.0,-999,-99.99,,,-99.99,,2013-01-08 03:00:00,
2013-01-07 20:00:00,41.0,-99.9,-100.00,SW,225,12.0,-999.0,-999,-99.99,,,-99.99,,2013-01-08 04:00:00,
2013-01-07 21:00:00,41.0,-99.9,-100.00,SW,236,10.0,-999.0,-999,-99.99,,,-99.99,,2013-01-08 05:00:00,
2013-01-07 22:00:00,41.0,-99.9,-100.00,SW,226,10.0,-999.0,-999,-99.99,,,-99.99,,2013-01-08 06:00:00,
2013-01-07 23:00:00,40.0,-99.9,-100.00,SW,231,10.0,-999.0,-999,-99.99,,,-99.99,,2013-01-08 07:00:00,
2013-01-07 23:53:00,40.0,-99.9,-100.00,SW,231,10.0,-999.0,-999,-99.99,,,-99.99,,2013-01-08 07:53:00,